SB KEPS @ AMSAT $ORB11349.N 2Line Orbital Elements 11349.AMSAT
HR AMSAT ORBITAL ELEMENTS FOR AMATEUR SATELLITES IN NASA FORMAT FROM WA5QGD FORT WORTH,TX December 15, 2011 Send Subscribe/unsubscribe to KEPS at http://www.amsat.org/mailman/listinfo/keps BID: ORB11349.N
DECODE 2-LINE ELSETS WITH THE FOLLOWING KEY: 1 AAAAAU 00 0 0 BBBBB.BBBBBBBB .CCCCCCCC 00000-0 00000-0 0 DDDZ 2 AAAAA EEE.EEEE FFF.FFFF GGGGGGG HHH.HHHH III.IIII JJ.JJJJJJJJKKKKKZ KEY: A-CATALOGNUM B-EPOCHTIME C-DECAY D-ELSETNUM E-INCLINATION F-RAAN G-ECCENTRICITY H-ARGPERIGEE I-MNANOM J-MNMOTION K-ORBITNUM Z-CHECKSUM
TO ALL RADIO AMATEURS BT
AO-07 1 07530U 74089B 11348.51740542 -.00000027 00000-0 10000-3 0 2546 2 07530 101.3967 347.9610 0011913 287.0127 072.9643 12.53586356696787 FO-29 1 24278U 96046B 11348.94025180 -.00000003 00000-0 31109-4 0 07321 2 24278 098.5732 108.9610 0351005 148.8913 213.3535 13.52973702756900 SO-33 1 25509U 98061B 11348.89035421 .00001387 00000-0 26641-3 0 01223 2 25509 031.4343 302.1769 0352376 022.0362 339.5075 14.28613756686139 RS-22 1 27939U 03042A 11349.65698276 .00000893 00000-0 17932-3 0 9014 2 27939 097.8240 194.7858 0014387 127.9033 232.3456 14.63826513438887 VO-52 1 28650U 05017B 11348.60976187 .00002393 00000-0 30251-3 0 09749 2 28650 097.6207 023.4785 0025555 291.7429 068.1063 14.82532048357476 SO-67 1 35870U 09049F 11349.63884499 .00006973 00000-0 30570-3 0 4970 2 35870 097.2584 026.8257 0003782 090.9857 055.1986 15.22283847124528 HO-68 1 36122U 09072B 11349.59323603 -.00000044 00000-0 00000 0 0 158 2 36122 100.3918 047.4591 0007644 168.6691 191.4601 13.16291356 96101 UO-11 1 14781U 84021B 11348.71382307 .00000974 00000-0 13502-3 0 07402 2 14781 097.9812 044.6260 0007932 276.3467 083.6836 14.80231380492499 AO-16 1 20439U 90005D 11348.85887182 .00000287 00000-0 12264-3 0 03603 2 20439 098.4076 292.6466 0011124 353.4197 006.6834 14.31994910143477 LO-19 1 20442U 90005G 11348.91022646 .00000273 00000-0 11685-3 0 2712 2 20442 098.3729 296.3690 0011769 345.2787 014.8050 14.32216723143666 AO-27 1 22825U 93061C 11348.82256510 .00000166 00000-0 82117-4 0 9833 2 22825 098.5541 289.7364 0009259 103.3820 256.8410 14.29410163949991 IO-26 1 22826U 93061D 11348.85861085 .00000262 00000-0 11883-3 0 07427 2 22826 098.5481 290.1921 0009795 096.2856 263.9439 14.29679120950121 GO-32 1 25397U 98043D 11348.66175111 .00000000 00000-0 18103-4 0 06540 2 25397 098.3431 331.7215 0002105 094.4702 265.6703 14.23245446697637 NO-44 1 26931U 01043C 11348.66799452 .00000072 00000-0 60036-4 0 09217 2 26931 067.0521 238.4580 0004984 275.2117 084.8419 14.29736948532720 SO-50 1 27607U 02058C 11348.52685875 .00001307 00000-0 21774-3 0 6385 2 27607 064.5564 139.5585 0083906 284.6101 074.5651 14.72091435482635 CO-55 1 27844U 03031E 11348.52227127 .00000491 00000-0 24699-3 0 02650 2 27844 098.7048 354.6064 0010372 041.2376 318.9563 14.20925556438523 CO-57 1 27848U 03031J 11348.49428983 .00000421 00000-0 21534-3 0 02134 2 27848 098.7113 353.8340 0010443 046.9795 313.2267 14.20690416438460 AO-51 1 28375U 04025K 11349.50558537 .00000514 00000-0 16684-3 0 1442 2 28375 098.1209 318.6511 0082730 240.7355 118.5532 14.40870575392175 CP3 1 31129U 07012N 11349.51922388 .00001354 00000-0 31876-3 0 444 2 31129 097.8897 003.1659 0101356 338.1643 021.5228 14.52788694247168 CO-65 1 32785U 08021C 11348.59843517 .00002211 00000-0 28128-3 0 01762 2 32785 097.8281 048.8531 0014000 311.6617 048.3420 14.82520756196266 PRISM 1 33493U 09002B 11349.77270656 .00005859 00000-0 72766-3 0 2396 2 33493 098.1462 121.3919 0019624 172.1988 187.9505 14.82852484156416 SOHLA-1 1 33496U 09002E 11348.80996273 .00000773 00000-0 13769-3 0 06046 2 33496 098.0938 096.9723 0005604 271.6163 088.4392 14.69808249155018 TISAT-1 1 36799U 10035E 11348.89155135 .00003509 00000-0 45576-3 0 05079 2 36799 098.0840 058.8002 0016049 055.7221 304.5474 14.81293594077052 STUDSAT 1 36801U 10035G 11349.79017341 .00008962 00000-0 11189-2 0 3000 2 36801 098.0912 059.7853 0013672 038.7901 321.4273 14.82545619 77183 OOREOS 1 37224U 10062C 11330.25217324 .00002151 00000-0 30897-3 0 00339 2 37224 071.9741 041.3371 0020052 337.4654 022.5620 14.77385090005948 FO-69 1 37227U 0 11348.45842189 .00001165 00000-0 17326-3 0 00490 2 37227 071.9698 001.7270 0018505 302.4603 057.4753 14.76846348008670 NANOSALD 1 37361U 0 11242.25215765 .00180112 00000-0 75811-2 0 03512 2 37361 071.9735 221.4469 0025730 245.3422 114.7284 15.22200108033319 FO-70 1 37380U 0 11348.43322615 .00001135 00000-0 16996-3 0 00539 2 37380 071.9733 002.1098 0019099 299.9958 059.9308 14.76604111008566 NOAA-10 1 16969U 86073A 11348.70019500 .00000165 00000-0 84951-4 0 07445 2 16969 098.6016 015.8730 0013151 059.5493 300.6974 14.27511857313404 NOAA-11 1 19531U 88089A 11348.80569322 .00000082 00000-0 64757-4 0 07445 2 19531 098.7454 072.7881 0011781 036.1529 324.0453 14.14944654198297 NOAA-12 1 21263U 91032A 11348.95272753 .00000149 00000-0 82029-4 0 02482 2 21263 098.7417 006.3694 0014380 022.4389 337.7417 14.25464798070160 MET-3/5 1 21655U 91056A 11348.93877031 .00000051 00000-0 10000-3 0 02875 2 21655 082.5603 283.0575 0014855 066.0796 294.1907 13.17035731977514 MET-2/21 1 22782U 93055A 11349.61643298 .00000016 00000-0 13591-5 0 2837 2 22782 082.5450 178.9407 0021550 313.1365 046.7988 13.83670889923647 OKEAN-4 1 23317U 94066A 11348.96622078 .00001471 00000-0 17572-3 0 07848 2 23317 082.5407 204.2997 0019961 242.0544 117.8653 14.83458286927349 NOAA-14 1 23455U 94089A 11348.92136703 .00000160 00000-0 10757-3 0 07333 2 23455 098.8414 069.6625 0009941 123.0888 237.1240 14.13863040874617 NOAA-15 1 25338U 98030A 11348.62387640 .00000390 00000-0 18537-3 0 00635 2 25338 098.6734 332.4691 0009843 290.8524 069.1586 14.25006025706421 RESURS 1 25394U 98043A 11348.93844594 .00000128 00000-0 73202-4 0 09854 2 25394 098.3068 342.0753 0002355 063.8934 296.2488 14.24263735698033 FENGYUN1 1 25730U 99025A 11348.91689558 .00000828 00000-0 50115-3 0 4921 2 25730 098.8306 306.3196 0020982 171.2379 188.9153 14.09119100648517 OKEAN-0 1 25860U 99039A 11349.83548393 .00001014 00000-0 16174-3 0 4928 2 25860 097.9100 311.5599 0001732 086.6405 273.4999 14.74016228667416 NOAA-16 1 26536U 00055A 11348.61791251 -.00000068 00000-0 -11878-4 0 05453 2 26536 099.1206 022.6515 0009750 244.4830 115.5335 14.12683594578835 NOAA-17 1 27453U 02032A 11348.92742234 .00000288 00000-0 14211-3 0 05286 2 27453 098.3583 020.1409 0011563 345.3712 014.7138 14.24368462492386 NOAA-18 1 28654U 05018A 11348.78568651 .00000554 00000-0 33000-3 0 00031 2 28654 099.0213 300.5914 0013924 319.3304 040.6821 14.11575324338407 NOAA-19 1 33591U 09005A 11348.75209838 .00000500 00000-0 30080-3 0 01928 2 33591 098.8468 286.0251 0013958 182.6661 177.4446 14.11264295146858 HUBBLE 1 20580U 90037B 11347.17678168 .00003263 00000-0 23064-3 0 9042 2 20580 028.4717 286.8741 0003564 222.7757 137.2358 15.01987885986589 ISS 1 25544U 98067A 11349.94557278 .00016796 00000-0 22123-3 0 6310 2 25544 051.6451 326.3978 0024914 168.6872 288.3921 15.58214982749288 CO-58 1 28895U 05043F 11348.62751943 .00001378 00000-0 29345-3 0 00499 2 28895 097.9397 217.7814 0018010 018.2147 341.9677 14.60390463326577 FALCON 1 30776U 07006E 11348.93417935 .00007431 00000-0 49986-3 0 02496 2 30776 035.4349 327.1362 0002637 234.8572 125.1896 15.06141359262294 MAST 1 31126U 07012K 11349.52723426 .00000959 00000-0 22520-3 0 3331 2 31126 097.8826 006.3890 0093820 326.8290 032.7044 14.53964270247434 CAPE1 1 31130U 07012P 11348.92210731 .00001557 00000-0 36566-3 0 03452 2 31130 097.8872 002.3470 0101735 340.4936 019.2396 14.52675222246876 COMPASS 1 32787U 08021E 11348.66732285 .00003730 00000-0 46186-3 0 01728 2 32787 097.8279 048.9657 0014582 310.4610 049.5329 14.83249611196305 AAUSAT2 1 32788U 08021F 11348.87558604 .00004213 00000-0 51752-3 0 01635 2 32788 097.8285 049.4591 0014308 311.8685 048.1254 14.83507509196359 DO-64 1 32789U 08021G 11348.87507315 .00006406 00000-0 76503-3 0 01771 2 32789 097.8365 050.8645 0014474 307.0149 052.9704 14.84487902196371 CO-66 1 32791U 08021J 11349.46949033 .00002894 00000-0 36362-3 0 1650 2 32791 097.8283 049.6198 0015047 307.9596 052.0261 14.82803452196362 RS-30 1 32953U 08025A 11349.56913268 .00000010 00000-0 00000 0 0 3450 2 32953 082.5034 049.9478 0018489 355.0020 005.0877 12.43018344161625 TACSAT-3 1 35001U 09028A 11349.82348293 .00074321 00000-0 75920-3 0 7974 2 35001 040.4513 141.8005 0005287 105.8579 254.2827 15.64018873145344 PHARMSAT 1 35002U 09028B 11349.83812261 .00050830 00000-0 61798-3 0 7367 2 35002 040.4712 142.2485 0010870 141.7757 218.3837 15.59606034145342 HAWKSAT1 1 35003U 09028C 11276.79285837 .02274821 58283-2 19360-2 0 8114 2 35003 040.4398 174.3672 0011414 274.3918 085.3844 16.13812532134570 CP6 1 35004U 09028D 11247.64656856 .16152067 73217-5 10011-2 0 7842 2 35004 040.4403 342.9642 0002956 038.0069 322.2231 16.41039951130139 METEOR-M 1 35865U 09049A 11349.70867547 .00000031 00000-0 34095-4 0 9822 2 35865 098.6827 042.2529 0001771 217.3214 142.7841 14.21851207116386 RS-38 1 35869U 09049E 11349.61523802 .00000121 00000-0 74640-4 0 9706 2 35869 098.6792 042.1822 0003966 221.1162 138.9726 14.22044289116383 ARISSAT1 1 37772U 98067CK 11349.78566644 .00402193 75018-4 10403-2 0 4102 2 37772 051.6343 316.9837 0008591 123.8765 312.8303 15.94498668 20970 SRMSAT 1 37839U 11058B 11347.46882072 .00000619 00000-0 19019-3 0 00516 2 37839 019.9591 049.3605 0019241 327.1509 032.7697 14.12005612008821 JUGNU 1 37841U 11058D 11348.47284851 .00000264 00000-0 00000-0 0 00481 2 37841 019.9701 044.5172 0011918 313.2184 046.7163 14.10098656008956 RAX-2 1 37853U 11061D 11348.97707453 .00004727 00000-0 38930-3 0 00452 2 37853 101.7040 300.1986 0253463 158.2468 202.9720 14.78206784007023 AUBIESAT 1 37854U 11061E 11348.97076575 .00005386 00000-0 43553-3 0 00490 2 37854 101.7074 300.2253 0255367 157.7228 203.5291 14.78432477007000 HRBE 1 37855U 11061F 11349.85157742 .00004692 00000-0 38215-3 0 448 2 37855 101.7081 301.5043 0254897 155.2214 206.1479 14.78388838 7137 /EX
participants (1)
-
Ray Hoad